Flag Weather past 2 weeks in Fjerdingby, Norway

Now
33 °F

Chilly.


Feels Like: 33 °F
Forecast: 30 / 33 °F
Wind: 2 mph from East

Location: Oslo-Blindern

Current Time: Nov 28, 2014 at 8:51:14 PM

Latest Report: Nov 28, 2014 at 8:00 PM


Visibility: N/A

Pressure: 30.48 "Hg

Humidity: 90%

Dew point: 31 °F

Location of FjerdingbyLocation

Historic Weather in Fjerdingby — Graph

°F

Fjerdingby temperature yesterday

Maximum temperature yesterday: 32 °F (at 1:00 PM)
Minimum temperature yesterday: 27 °F (at 3:00 AM)
Average temperature yesterday: 30 °F

Past Weeks' High & Low Weather Summary

 TemperatureHumidityPressure
High45 °F (Nov 24, 9:00 AM)99% (Nov 26, 10:00 PM)30.52 "Hg (Nov 26, 10:00 PM)
Low27 °F (Nov 27, 3:00 AM)72% (Nov 17, 11:00 AM)29.66 "Hg (Nov 24, 8:00 AM)
Average37 °F88%30.25 "Hg
* Reported Nov 13 7:00 PM — Nov 28 7:00 PM, Fjerdingby, Weather by CustomWeather, © 2014

Note: Actual official high and low records may vary slightly from our data, if they occured in-between our weather recording intervals... More about our weather records

Advertising

Fjerdingby weather history for previous 24 hours

 ConditionsComfort  
Time TempWeatherWind HumidityBarometerVisibility
7:00 PM
Nov 28
34 °FOvercast.3 mph88%30.47 "Hg34 mi
6:00 PM34 °FChilly.2 mph90%30.46 "HgN/A
5:00 PM34 °FChilly.3 mph91%30.45 "HgN/A
4:00 PM34 °FOvercast.3 mph90%30.44 "Hg40 mi
3:00 PM34 °FChilly.2 mph90%30.43 "HgN/A
2:00 PM34 °FChilly.2 mph90%30.43 "HgN/A
1:00 PM34 °FChilly.2 mph89%30.43 "HgN/A
12:00 PM34 °FChilly.2 mph89%30.42 "HgN/A
11:00 AM34 °FChilly.2 mph87%30.42 "HgN/A
10:00 AM34 °FChilly.2 mph88%30.41 "HgN/A
9:00 AM33 °FChilly.3 mph89%30.39 "HgN/A
8:00 AM33 °FChilly.2 mph91%30.37 "HgN/A
7:00 AM33 °FOvercast.3 mph88%30.36 "Hg47 mi
6:00 AM33 °FChilly.3 mph86%30.34 "HgN/A
5:00 AM33 °FChilly.3 mph85%30.34 "HgN/A
4:00 AM32 °FOvercast.3 mph87%30.33 "Hg34 mi
3:00 AM32 °FChilly.3 mph87%30.33 "HgN/A
2:00 AM32 °FChilly.3 mph85%30.32 "HgN/A
1:00 AM32 °FOvercast.5 mph87%30.31 "Hg34 mi
12:00 AM32 °FChilly.3 mph86%30.30 "HgN/A
11:00 PM
Nov 27
32 °FChilly.3 mph86%30.31 "HgN/A
10:00 PM31 °FLight snow. Overcast.2 mph90%30.30 "Hg3 mi
9:00 PM31 °FChilly.3 mph86%30.29 "HgN/A
8:00 PM31 °FChilly.5 mph86%30.27 "HgN/A
Weather by CustomWeather, © 2014

See weather overviewHow to use our weather pages